Printer-friendly version

IAU Minor Planet Center

Minor Planet Center

C/2009 P1 (Garradd)

Orbital Elements

The following orbital elements are taken from MPC 67147:
C/2009 P1 (Garradd)
Epoch 2011 Dec. 25.0 TT = JDT 2455920.5
T 2011 Dec. 24.6489 TT                                  MPC
q   1.555399             (2000.0)            P               Q
z  -0.000641       Peri.   90.6544      -0.1664983      -0.8263670
 +/-0.000389       Node   325.9158      -0.5888724      +0.5209268
e   1.000997       Incl.  106.2744      +0.7908904      +0.2138991
From 74 observations 2009 Aug. 13-Sept. 25, mean residual 0".6.
Elements are also available for the current standard epoch:
C/2009 P1 (Garradd)
Epoch 2010 Jan. 4.0 TT = JDT 2455200.5
T 2011 Dec. 25.0276 TT                                  MPC
q   1.554686             (2000.0)            P               Q
z  +0.000076       Peri.   90.7059      -0.1679322      -0.8259503
 +/-0.000389       Node   325.8894      -0.5890079      +0.5218130
e   0.999882       Incl.  106.3370      +0.7904862      +0.2133475
An explanation of the orbital elements is available.

These orbital elements are also available in forms suitable for loading into a number of popular planetarium-type software programs.


Ephemeris

The following ephemeris is at intervals of five days. A daily ephemeris covering the same time interval is also available.

Personalized ephemerides for this (and other) objects may be generated using the Minor Planet & Comet Ephemeris Service.

Recent magnitude estimates for this comet (as reported to the ICQ) may be available.

Date    TT    R. A. (2000) Decl.     Delta      r     Elong.  Phase   m1    m2

WARNING!

This comet gets close to the sun during the period covered in the ephemeris below. Observers are warned to be wary of observing comets near the sun. NEVER point any kind of optical instrument at the sun--instant blindness will be the probable result.

2009 10 26 23 22.65 -45 59.7 7.713 8.131 111.6 6.5 17.5 2009 10 31 23 19.62 -45 44.4 7.737 8.093 107.6 6.7 17.5 2009 11 05 23 16.85 -45 26.8 7.764 8.055 103.6 6.9 17.5 2009 11 10 23 14.37 -45 07.0 7.794 8.016 99.4 7.0 17.5 2009 11 15 23 12.19 -44 45.3 7.825 7.977 95.3 7.1 17.5 2009 11 20 23 10.31 -44 21.8 7.858 7.939 91.1 7.1 17.5 2009 11 25 23 08.73 -43 56.9 7.891 7.900 86.9 7.2 17.5 2009 11 30 23 07.47 -43 30.6 7.925 7.861 82.7 7.1 17.4 2009 12 05 23 06.50 -43 03.3 7.957 7.822 78.6 7.1 17.4 2009 12 10 23 05.83 -42 35.0 7.989 7.783 74.5 7.0 17.4 2009 12 15 23 05.45 -42 06.1 8.020 7.744 70.4 6.9 17.4 2009 12 20 23 05.33 -41 36.6 8.048 7.705 66.3 6.7 17.4 2009 12 25 23 05.48 -41 06.7 8.073 7.666 62.3 6.5 17.4 2009 12 30 23 05.88 -40 36.6 8.096 7.627 58.4 6.3 17.4 2010 01 04 23 06.51 -40 06.4 8.115 7.587 54.6 6.1 17.3 2010 01 09 23 07.35 -39 36.3 8.130 7.548 50.9 5.8 17.3 2010 01 14 23 08.39 -39 06.4 8.141 7.509 47.3 5.5 17.3 2010 01 19 23 09.62 -38 36.7 8.147 7.469 43.9 5.2 17.3 2010 01 24 23 11.01 -38 07.4 8.148 7.429 40.7 5.0 17.3 2010 01 29 23 12.56 -37 38.7 8.145 7.390 37.7 4.7 17.2 2010 02 03 23 14.24 -37 10.4 8.135 7.350 35.0 4.4 17.2 2010 02 08 23 16.04 -36 42.9 8.121 7.310 32.7 4.2 17.2 2010 02 13 23 17.95 -36 16.1 8.101 7.270 30.8 4.0 17.2 2010 02 18 23 19.95 -35 50.1 8.074 7.230 29.4 3.9 17.1 2010 02 23 23 22.02 -35 25.0 8.043 7.190 28.6 3.8 17.1 2010 02 28 23 24.16 -35 00.9 8.005 7.150 28.5 3.8 17.1 2010 03 05 23 26.34 -34 37.8 7.961 7.109 29.0 3.9 17.0 2010 03 10 23 28.56 -34 15.9 7.911 7.069 30.0 4.0 17.0 2010 03 15 23 30.80 -33 55.1 7.856 7.029 31.6 4.3 16.9 2010 03 20 23 33.05 -33 35.6 7.794 6.988 33.7 4.5 16.9 2010 03 25 23 35.28 -33 17.4 7.728 6.947 36.2 4.9 16.9 2010 03 30 23 37.50 -33 00.6 7.655 6.907 38.9 5.2 16.8 2010 04 04 23 39.69 -32 45.3 7.578 6.866 41.9 5.6 16.8 2010 04 09 23 41.82 -32 31.5 7.495 6.825 45.1 6.0 16.7 2010 04 14 23 43.90 -32 19.4 7.408 6.784 48.4 6.4 16.7 2010 04 19 23 45.90 -32 08.9 7.316 6.743 51.9 6.7 16.6 2010 04 24 23 47.81 -32 00.1 7.220 6.702 55.5 7.1 16.6 2010 04 29 23 49.62 -31 53.2 7.120 6.661 59.2 7.5 16.5 2010 05 04 23 51.30 -31 48.1 7.016 6.619 63.0 7.8 16.4 2010 05 09 23 52.85 -31 45.0 6.909 6.578 66.8 8.1 16.4 2010 05 14 23 54.25 -31 43.9 6.799 6.536 70.8 8.4 16.3 2010 05 19 23 55.47 -31 44.8 6.687 6.495 74.7 8.6 16.3 2010 05 24 23 56.51 -31 47.9 6.573 6.453 78.8 8.9 16.2 2010 05 29 23 57.33 -31 53.0 6.458 6.411 82.9 9.0 16.1 2010 06 03 23 57.93 -32 00.3 6.341 6.369 87.0 9.2 16.1 2010 06 08 23 58.28 -32 09.8 6.224 6.328 91.2 9.2 16.0 2010 06 13 23 58.36 -32 21.4 6.107 6.285 95.5 9.3 15.9 2010 06 18 23 58.15 -32 35.2 5.991 6.243 99.7 9.2 15.8 2010 06 23 23 57.63 -32 51.0 5.875 6.201 104.1 9.1 15.8 2010 06 28 23 56.77 -33 08.7 5.762 6.159 108.4 9.0 15.7 2010 07 03 23 55.55 -33 28.2 5.651 6.116 112.8 8.8 15.6 2010 07 08 23 53.97 -33 49.5 5.542 6.074 117.1 8.6 15.6 2010 07 13 23 51.98 -34 12.1 5.437 6.031 121.5 8.3 15.5 2010 07 18 23 49.58 -34 36.0 5.337 5.988 125.8 7.9 15.4 2010 07 23 23 46.77 -35 00.6 5.241 5.945 130.0 7.5 15.3 2010 07 28 23 43.52 -35 25.7 5.150 5.903 134.1 7.1 15.3 2010 08 02 23 39.84 -35 50.9 5.065 5.859 138.0 6.7 15.2 2010 08 07 23 35.74 -36 15.6 4.987 5.816 141.6 6.2 15.1 2010 08 12 23 31.23 -36 39.4 4.915 5.773 144.8 5.8 15.1 2010 08 17 23 26.32 -37 01.7 4.851 5.730 147.4 5.5 15.0 2010 08 22 23 21.07 -37 22.0 4.794 5.686 149.2 5.2 15.0 2010 08 27 23 15.52 -37 39.8 4.745 5.643 150.0 5.1 14.9 2010 09 01 23 09.72 -37 54.5 4.704 5.599 149.8 5.2 14.8 2010 09 06 23 03.72 -38 05.8 4.671 5.555 148.5 5.4 14.8 2010 09 11 22 57.62 -38 13.2 4.646 5.511 146.3 5.8 14.7 2010 09 16 22 51.48 -38 16.6 4.629 5.467 143.2 6.3 14.7 2010 09 21 22 45.39 -38 15.6 4.619 5.423 139.6 6.9 14.7 2010 09 26 22 39.43 -38 10.4 4.617 5.379 135.6 7.5 14.6 2010 10 01 22 33.66 -38 00.9 4.622 5.335 131.2 8.1 14.6 2010 10 06 22 28.16 -37 47.3 4.633 5.291 126.6 8.7 14.6 2010 10 11 22 22.99 -37 29.8 4.650 5.246 121.9 9.3 14.5 2010 10 16 22 18.20 -37 08.6 4.672 5.201 117.0 9.8 14.5 2010 10 21 22 13.83 -36 44.0 4.698 5.157 112.1 10.3 14.5 2010 10 26 22 09.90 -36 16.5 4.729 5.112 107.2 10.7 14.5 2010 10 31 22 06.44 -35 46.4 4.762 5.067 102.3 11.0 14.4 2010 11 05 22 03.44 -35 14.0 4.798 5.022 97.3 11.3 14.4 2010 11 10 22 00.92 -34 39.6 4.836 4.977 92.4 11.5 14.4 2010 11 15 21 58.87 -34 03.6 4.874 4.931 87.5 11.6 14.4 2010 11 20 21 57.27 -33 26.2 4.912 4.886 82.7 11.6 14.3 2010 11 25 21 56.10 -32 47.6 4.950 4.840 77.9 11.5 14.3 2010 11 30 21 55.35 -32 08.1 4.987 4.795 73.2 11.4 14.3

Valid HTML 4.01!